Location: Jaboat�o
(8.1170°S, 35.0170°W)
Time: 20:12:23
(UTC-03:00)

BlueWalker 3 - Visible Passes

Search period start: 19 June 2024 00:00
Search period end: 29 June 2024 00:00
Orbit: 480 x 494 km, 53.2° (Epoch: 19 June)

Date Brightness Start Highest point End Pass type
(mag) Time Alt. Az. Time Alt. Az. Time Alt. Az.
19 Jun 5.4 18:07:25 10° W 18:09:02 12° WNW 18:10:38 10° NNW visible
20 Jun 5.3 17:41:22 10° W 17:43:21 14° WNW 17:45:20 10° NNW visible
22 Jun 1.8 05:04:40 10° NW 05:08:24 68° SW 05:12:10 10° SSE visible
23 Jun 1.7 04:38:57 10° NW 04:42:41 77° SW 04:46:29 10° SSE visible
24 Jun 1.7 04:13:14 10° NW 04:16:59 87° SW 04:20:46 10° SSE visible
25 Jun 3.3 03:53:01 30° SE 03:53:01 30° SE 03:55:02 10° SE visible
